Location: Madrid
(40.4000°N, 3.6830°W)
Time: 12:42:42
(UTC+02:00)

ISS - Pass Details

Date: 01 April 2020
Orbit: 417 x 419 km, 51.6° (Epoch: 31 May)

Event Time Altitude Azimuth Distance (km) Brightness Sun altitude
Rises 22:28:46 0° 310° (NW) 2,365 1.5 -20.6°
Reaches altitude 10° 22:30:56 10° 317° (NW) 1,498 0.0 -21.0°
Enters shadow 22:33:43 41° 5° (N) 622 -2.8 -21.5°
